LiveATC.Net - Listen to live air traffic control over the Internet! Contact LiveATC.net for advertising information


ICAO: KCRE  IATA: CRE   Airport: Grand Strand Airport
City: North Myrtle Beach   State/Province: South Carolina
Country: United States   Continent: North America
KCRE METAR Weather: KCRE 290853Z AUTO 35003KT 10SM CLR 23/22 A2995 RMK AO1 SLP142 T02280217 56008
KCRE Flight Activity (FlightAware)
KCRE Airport Info   (AirNav) (iFlightPlanner)
KCRE VFR Sectional Chart   (iFlightPlanner) 
KCRE IFR Low Chart   (iFlightPlanner) 
KCRE Tower
Feed Status: DOWN
Last heard on: 2015-07-27 11:46:03 (1 days 21 hours 41 minutes ago)
KCRE Tower Audio Archives
FacilityFrequency
Strand Tower124.600


NOTICE

Unauthorized use prohibited. See LiveATC.net Terms of Service


Find LiveATC Audio Streams


Airport/ARTCC Code

Frequency
(e.g., 124.400, 128.75)
Site-wide search

Browse LiveATC Feeds
LiveATC Coverage Map
Top 50 LiveATC Feeds
Bad Weather Areas

LiveATC FAQ
Offer a LiveATC Feed
Contact LiveATC.net
Press Inquiries

LiveATC on iPhone
LiveATC on Android

LiveATC Mobile
(Mobile browser)

ATC Audio Archives
Interesting Recordings

LiveATC Forums


Home Page
About LiveATC.net
Make a Donation
LiveATC Bookstore

Terms of Use
Privacy Policy

ATC/Radar Sites
U.S. ARTCC Freqs
Canadian Air Freqs

AIRMETs/SIGMETs

FAA Airport Status
Nat'l Airspace Status
Arrival Demand Charts


Server Software By:
Icecast.org
Liquidsoap

Please make a donation to help us keep growing!